This is the latest recevied weather packets stored in our database for station/object SQ6XL-13. If no packets are shown the sender has not sent any weather packets the latest 1 day(s).
| Time | Temp. | Humidity | Pressure | Rain* | Wind** | Luminosity | Snow |
|---|---|---|---|---|---|---|---|
| 1777972307 | 22.22° C | 42% | 1008.5 hPa | 0 mm | - | - | - |
| 1777971812 | 22.22° C | 43% | 1008.7 hPa | 0 mm | - | - | - |
| 1777971327 | 22.22° C | 42% | 1008.7 hPa | 0 mm | - | - | - |
| 1777970822 | 21.67° C | 42% | 1008.9 hPa | 0 mm | - | - | - |
| 1777970327 | 21.67° C | 44% | 1009 hPa | 0 mm | - | - | - |
| 1777969737 | 21.67° C | 45% | 1009 hPa | 0 mm | - | - | - |
| 1777969222 | 21.67° C | 43% | 1009.2 hPa | 0 mm | - | - | - |
| 1777968732 | 21.67° C | 44% | 1009.3 hPa | 0 mm | - | - | - |
| 1777968222 | 21.67° C | 44% | 1009.2 hPa | 0 mm | - | - | - |
| 1777967637 | 21.11° C | 44% | 1009.3 hPa | 0 mm | - | - | - |
| 1777967059 | 20.56° C | 43% | 1009.4 hPa | 0 mm | - | - | - |
| 1777966580 | 20.56° C | 46% | 1009.5 hPa | 0 mm | - | - | - |
| 1777965987 | 20.56° C | 44% | 1009.6 hPa | 0 mm | - | - | - |
| 1777965407 | 20° C | 47% | 1009.4 hPa | 0 mm | - | - | - |
| 1777964927 | 20° C | 46% | 1009.5 hPa | 0 mm | - | - | - |
| 1777964447 | 19.44° C | 48% | 1009.4 hPa | 0 mm | - | - | - |
| 1777963937 | 19.44° C | 48% | 1009.5 hPa | 0 mm | - | - | - |
| 1777963382 | 18.89° C | 51% | 1009.5 hPa | 0 mm | - | - | - |
| 1777962900 | 18.89° C | 50% | 1009.5 hPa | 0 mm | - | - | - |
| 1777962412 | 18.33° C | 52% | 1009.6 hPa | 0 mm | - | - | - |
| 1777961912 | 18.33° C | 56% | 1009.7 hPa | 0 mm | - | - | - |
| 1777961382 | 17.78° C | 55% | 1009.9 hPa | 0 mm | - | - | - |
| 1777960787 | 17.78° C | 54% | 1009.9 hPa | 0 mm | - | - | - |
| 1777960302 | 17.78° C | 54% | 1009.9 hPa | 0 mm | - | - | - |
| 1777959712 | 17.22° C | 54% | 1010 hPa | 0 mm | - | - | - |
* Rain latest hour (hover to see other rain measurements)
** Current wind speed in m/s (hover to see current wind gust speed)